CEB01 RPLL-RPLL

Flight info

Callsign CEB01
Flight time 0h 41m
Altitude 3000
Route RPLL06 VISUAL PATTERN
Aircraft A20N/M-SDE2E3FGHIJ1RWXY/LB1

Departure

Time 2026-05-05 13:53
Airport Ninoy Aquino International Airport (RPLL)

Arrival

Time 2026-05-05 14:34
Airport Ninoy Aquino International Airport (RPLL)
Time Latitude Longitude Altitude Speed Heading
2026-05-05 13:29 14.51991 121.01179 82 ft 0 kts 46°
2026-05-05 13:39 14.51989 121.01176 82 ft 2 kts 45°
2026-05-05 13:39 14.51978 121.01166 82 ft 2 kts 44°
2026-05-05 13:39 14.51968 121.01155 82 ft 2 kts 44°
2026-05-05 13:39 14.51957 121.01144 82 ft 2 kts 44°
2026-05-05 13:40 14.51946 121.01134 82 ft 2 kts 44°
2026-05-05 13:40 14.51935 121.01122 82 ft 2 kts 47°
2026-05-05 13:40 14.51930 121.01109 82 ft 2 kts 93°
2026-05-05 13:40 14.51934 121.01095 82 ft 1 kts 129°
2026-05-05 13:41 14.51936 121.01092 82 ft 1 kts 135°
2026-05-05 13:41 14.51914 121.01116 82 ft 6 kts 135°
2026-05-05 13:41 14.51896 121.01134 82 ft 1 kts 135°
2026-05-05 13:41 14.51896 121.01135 82 ft 0 kts 135°
2026-05-05 13:43 14.51891 121.01140 82 ft 4 kts 134°
2026-05-05 13:44 14.51841 121.01193 82 ft 14 kts 136°
2026-05-05 13:44 14.51769 121.01266 82 ft 14 kts 134°
2026-05-05 13:44 14.51703 121.01323 82 ft 8 kts 169°
2026-05-05 13:44 14.51638 121.01311 82 ft 10 kts 171°
2026-05-05 13:45 14.51577 121.01360 82 ft 12 kts 135°
2026-05-05 13:45 14.51515 121.01426 82 ft 13 kts 136°
2026-05-05 13:45 14.51446 121.01495 82 ft 14 kts 134°
2026-05-05 13:45 14.51370 121.01573 82 ft 17 kts 136°
2026-05-05 13:46 14.51278 121.01668 82 ft 18 kts 134°
2026-05-05 13:46 14.51186 121.01766 82 ft 19 kts 135°
2026-05-05 13:46 14.51100 121.01854 82 ft 14 kts 135°
2026-05-05 13:46 14.51071 121.01884 82 ft 0 kts 134°
2026-05-05 13:47 14.51061 121.01894 82 ft 7 kts 134°
2026-05-05 13:47 14.51010 121.01914 82 ft 9 kts 196°
2026-05-05 13:48 14.50969 121.01860 82 ft 10 kts 244°
2026-05-05 13:48 14.50929 121.01784 82 ft 13 kts 240°
2026-05-05 13:48 14.50872 121.01685 82 ft 17 kts 240°
2026-05-05 13:48 14.50812 121.01576 82 ft 17 kts 240°
2026-05-05 13:49 14.50748 121.01462 82 ft 18 kts 240°
2026-05-05 13:49 14.50683 121.01344 82 ft 19 kts 240°
2026-05-05 13:49 14.50614 121.01221 82 ft 19 kts 239°
2026-05-05 13:49 14.50545 121.01096 82 ft 20 kts 240°
2026-05-05 13:50 14.50465 121.00951 82 ft 24 kts 240°
2026-05-05 13:50 14.50379 121.00797 82 ft 24 kts 239°
2026-05-05 13:50 14.50295 121.00648 82 ft 24 kts 240°
2026-05-05 13:50 14.50213 121.00500 82 ft 23 kts 240°
2026-05-05 13:51 14.50131 121.00351 82 ft 23 kts 239°
2026-05-05 13:51 14.50050 121.00206 82 ft 23 kts 240°
2026-05-05 13:51 14.49969 121.00060 82 ft 22 kts 240°
2026-05-05 13:51 14.49929 120.99989 82 ft 4 kts 234°
2026-05-05 13:52 14.49906 120.99969 82 ft 5 kts 205°
2026-05-05 13:52 14.49878 120.99967 82 ft 4 kts 164°
2026-05-05 13:52 14.49836 120.99988 82 ft 9 kts 149°
2026-05-05 13:52 14.49808 121.00047 82 ft 11 kts 76°
2026-05-05 13:53 14.49916 121.00259 83 ft 74 kts 60°
2026-05-05 13:53 14.50322 121.00988 114 ft 151 kts 61°
2026-05-05 13:53 14.50831 121.01920 825 ft 158 kts 63°
2026-05-05 13:53 14.51397 121.02966 1268 ft 171 kts 62°
2026-05-05 13:54 14.51981 121.04045 1465 ft 170 kts 62°
2026-05-05 13:54 14.52552 121.05112 1473 ft 169 kts 62°
2026-05-05 13:54 14.53121 121.06168 1480 ft 169 kts 61°
2026-05-05 13:54 14.53719 121.07214 1487 ft 168 kts 60°
2026-05-05 13:55 14.54313 121.08255 1483 ft 168 kts 60°
2026-05-05 13:55 14.54811 121.09325 1474 ft 166 kts 79°
2026-05-05 13:55 14.54600 121.10443 1469 ft 169 kts 121°
2026-05-05 13:55 14.53632 121.11137 1476 ft 176 kts 164°
2026-05-05 13:56 14.52414 121.10959 1479 ft 183 kts 207°
2026-05-05 13:56 14.51527 121.10002 1494 ft 187 kts 235°
2026-05-05 13:56 14.50861 121.08846 1489 ft 187 kts 239°
2026-05-05 13:56 14.50230 121.07672 1489 ft 187 kts 240°
2026-05-05 13:57 14.49597 121.06494 1489 ft 187 kts 240°
2026-05-05 13:57 14.48963 121.05314 1487 ft 187 kts 240°
2026-05-05 13:57 14.48333 121.04163 1488 ft 186 kts 239°
2026-05-05 13:57 14.47688 121.02994 1491 ft 187 kts 239°
2026-05-05 13:58 14.47035 121.01816 1492 ft 187 kts 240°
2026-05-05 13:58 14.46389 121.00645 1495 ft 187 kts 239°
2026-05-05 13:58 14.45742 120.99474 1494 ft 187 kts 239°
2026-05-05 13:58 14.45102 120.98317 1494 ft 187 kts 239°
2026-05-05 13:59 14.43814 120.95991 1495 ft 187 kts 239°
2026-05-05 13:59 14.43163 120.94814 1498 ft 186 kts 239°
2026-05-05 14:00 14.43088 120.92487 1422 ft 154 kts 314°
2026-05-05 14:00 14.43620 120.92077 1386 ft 140 kts 334°
2026-05-05 14:00 14.44808 120.91582 1296 ft 133 kts
2026-05-05 14:00 14.45586 120.91951 1315 ft 126 kts 58°
2026-05-05 14:01 14.45939 120.92772 1368 ft 124 kts 70°
2026-05-05 14:01 14.46295 120.93591 1377 ft 123 kts 66°
2026-05-05 14:01 14.46658 120.94382 1275 ft 123 kts 65°
2026-05-05 14:01 14.47076 120.95158 1127 ft 122 kts 62°
2026-05-05 14:02 14.47505 120.95921 959 ft 122 kts 62°
2026-05-05 14:02 14.47929 120.96677 799 ft 121 kts 61°
2026-05-05 14:02 14.48350 120.97434 637 ft 121 kts 63°
2026-05-05 14:02 14.48766 120.98196 518 ft 121 kts 62°
2026-05-05 14:03 14.49189 120.98945 366 ft 121 kts 62°
2026-05-05 14:03 14.49610 120.99700 225 ft 120 kts 62°
2026-05-05 14:03 14.50024 121.00445 104 ft 119 kts 62°
2026-05-05 14:03 14.50412 121.01147 82 ft 102 kts 61°
2026-05-05 14:04 14.50847 121.01927 222 ft 154 kts 62°
2026-05-05 14:04 14.51386 121.02915 1056 ft 167 kts 62°
2026-05-05 14:04 14.51980 121.03972 1331 ft 168 kts 60°
2026-05-05 14:04 14.52572 121.05003 1477 ft 168 kts 60°
2026-05-05 14:05 14.53173 121.06046 1478 ft 167 kts 60°
2026-05-05 14:05 14.53761 121.07076 1482 ft 167 kts 60°
2026-05-05 14:05 14.54266 121.08160 1474 ft 166 kts 80°
2026-05-05 14:05 14.54037 121.09306 1471 ft 169 kts 122°
2026-05-05 14:06 14.53058 121.09975 1474 ft 176 kts 166°
2026-05-05 14:06 14.51849 121.09776 1479 ft 182 kts 208°
2026-05-05 14:06 14.50970 121.08829 1491 ft 185 kts 234°
2026-05-05 14:06 14.50151 121.07816 1480 ft 184 kts 212°
2026-05-05 14:07 14.48957 121.07481 1481 ft 176 kts 170°
2026-05-05 14:07 14.47908 121.08030 1478 ft 169 kts 127°
2026-05-05 14:07 14.47541 121.09133 1485 ft 166 kts 85°
2026-05-05 14:07 14.48027 121.10185 1490 ft 167 kts 47°
2026-05-05 14:08 14.49073 121.10710 1478 ft 171 kts
2026-05-05 14:08 14.50194 121.10342 1474 ft 179 kts 323°
2026-05-05 14:08 14.50829 121.09222 1485 ft 185 kts 279°
2026-05-05 14:08 14.50590 121.07942 1486 ft 184 kts 236°
2026-05-05 14:09 14.49622 121.07153 1490 ft 180 kts 193°
2026-05-05 14:09 14.48414 121.07222 1492 ft 172 kts 150°
2026-05-05 14:09 14.47626 121.08092 1494 ft 167 kts 107°
2026-05-05 14:09 14.47674 121.09244 1496 ft 165 kts 64°
2026-05-05 14:10 14.48525 121.10027 1494 ft 170 kts 20°
2026-05-05 14:10 14.49691 121.09971 1486 ft 172 kts 337°
2026-05-05 14:10 14.50507 121.09077 1478 ft 174 kts 290°
2026-05-05 14:10 14.50504 121.07863 1490 ft 175 kts 248°
2026-05-05 14:11 14.49722 121.06920 1510 ft 182 kts 204°
2026-05-05 14:11 14.48472 121.06750 1513 ft 184 kts 163°
2026-05-05 14:11 14.47430 121.07462 1504 ft 179 kts 122°
2026-05-05 14:11 14.47142 121.08666 1501 ft 178 kts 81°
2026-05-05 14:12 14.47748 121.09804 1503 ft 189 kts 42°
2026-05-05 14:12 14.48980 121.10287 1496 ft 194 kts
2026-05-05 14:12 14.50189 121.09866 1472 ft 183 kts 322°
2026-05-05 14:12 14.50792 121.08765 1460 ft 175 kts 276°
2026-05-05 14:13 14.50552 121.07569 1492 ft 175 kts 245°
2026-05-05 14:13 14.49974 121.06409 1509 ft 183 kts 239°
2026-05-05 14:13 14.49342 121.05259 1503 ft 185 kts 238°
2026-05-05 14:13 14.48688 121.04104 1505 ft 185 kts 236°
2026-05-05 14:14 14.47940 121.03046 1505 ft 185 kts 230°
2026-05-05 14:14 14.47134 121.01986 1502 ft 185 kts 233°
2026-05-05 14:14 14.46452 121.00861 1500 ft 185 kts 238°
2026-05-05 14:14 14.45805 120.99712 1500 ft 186 kts 239°
2026-05-05 14:15 14.45162 120.98552 1499 ft 185 kts 239°
2026-05-05 14:15 14.44528 120.97394 1517 ft 182 kts 244°
2026-05-05 14:15 14.44391 120.96180 1490 ft 164 kts 288°
2026-05-05 14:15 14.45026 120.95350 1398 ft 140 kts 330°
2026-05-05 14:16 14.45874 120.94886 1293 ft 136 kts 349°
2026-05-05 14:16 14.46724 120.95019 1118 ft 120 kts 40°
2026-05-05 14:16 14.47280 120.95668 998 ft 121 kts 56°
2026-05-05 14:16 14.47761 120.96384 842 ft 121 kts 60°
2026-05-05 14:17 14.48188 120.97134 717 ft 121 kts 63°
2026-05-05 14:17 14.48599 120.97887 579 ft 121 kts 63°
2026-05-05 14:17 14.49023 120.98646 421 ft 122 kts 63°
2026-05-05 14:17 14.49448 120.99411 294 ft 121 kts 63°
2026-05-05 14:18 14.49870 121.00166 148 ft 120 kts 62°
2026-05-05 14:18 14.50266 121.00885 83 ft 107 kts 61°
2026-05-05 14:18 14.50665 121.01607 112 ft 145 kts 62°
2026-05-05 14:18 14.51183 121.02545 902 ft 158 kts 61°
2026-05-05 14:19 14.51763 121.03589 1293 ft 170 kts 61°
2026-05-05 14:19 14.52350 121.04638 1478 ft 168 kts 60°
2026-05-05 14:19 14.52935 121.05681 1479 ft 167 kts 61°
2026-05-05 14:19 14.53521 121.06724 1487 ft 167 kts 61°
2026-05-05 14:20 14.54105 121.07764 1491 ft 167 kts 60°
2026-05-05 14:20 14.54690 121.08806 1490 ft 167 kts 61°
2026-05-05 14:20 14.55124 121.09911 1478 ft 166 kts 86°
2026-05-05 14:20 14.54772 121.11016 1481 ft 169 kts 129°
2026-05-05 14:21 14.53721 121.11576 1480 ft 176 kts 172°
2026-05-05 14:21 14.52538 121.11236 1489 ft 182 kts 215°
2026-05-05 14:21 14.51717 121.10223 1500 ft 185 kts 236°
2026-05-05 14:21 14.51048 121.09092 1496 ft 186 kts 235°
2026-05-05 14:22 14.50098 121.08222 1478 ft 181 kts 198°
2026-05-05 14:22 14.48864 121.08200 1493 ft 178 kts 156°
2026-05-05 14:22 14.47942 121.09007 1500 ft 179 kts 116°
2026-05-05 14:22 14.47779 121.10257 1496 ft 178 kts 76°
2026-05-05 14:23 14.48496 121.11305 1502 ft 188 kts 36°
2026-05-05 14:23 14.49773 121.11646 1493 ft 195 kts 358°
2026-05-05 14:23 14.50952 121.11095 1469 ft 184 kts 316°
2026-05-05 14:23 14.51453 121.09952 1458 ft 175 kts 272°
2026-05-05 14:24 14.51068 121.08790 1472 ft 173 kts 226°
2026-05-05 14:24 14.50111 121.08050 1504 ft 174 kts 211°
2026-05-05 14:24 14.49030 121.07512 1485 ft 170 kts 184°
2026-05-05 14:24 14.47936 121.07792 1484 ft 161 kts 138°
2026-05-05 14:25 14.47341 121.08856 1517 ft 183 kts 97°
2026-05-05 14:25 14.47593 121.10136 1502 ft 188 kts 58°
2026-05-05 14:25 14.48609 121.10957 1491 ft 192 kts 20°
2026-05-05 14:25 14.49946 121.10921 1476 ft 193 kts 341°
2026-05-05 14:26 14.50914 121.10050 1457 ft 181 kts 298°
2026-05-05 14:26 14.51061 121.08833 1457 ft 175 kts 253°
2026-05-05 14:26 14.50380 121.07816 1508 ft 173 kts 225°
2026-05-05 14:26 14.49777 121.06718 1695 ft 178 kts 245°
2026-05-05 14:27 14.49188 121.05601 1763 ft 177 kts 238°
2026-05-05 14:27 14.48562 121.04497 1810 ft 177 kts 239°
2026-05-05 14:27 14.47946 121.03394 1856 ft 177 kts 239°
2026-05-05 14:27 14.47326 121.02281 1914 ft 184 kts 239°
2026-05-05 14:28 14.46681 121.01122 1964 ft 185 kts 239°
2026-05-05 14:28 14.46038 120.99966 2013 ft 186 kts 239°
2026-05-05 14:28 14.45395 120.98810 2060 ft 186 kts 239°
2026-05-05 14:28 14.44748 120.97647 2108 ft 186 kts 239°
2026-05-05 14:29 14.44100 120.96482 2156 ft 186 kts 239°
2026-05-05 14:29 14.43453 120.95319 2204 ft 186 kts 239°
2026-05-05 14:29 14.42812 120.94167 2101 ft 186 kts 239°
2026-05-05 14:29 14.42337 120.92937 1923 ft 188 kts 269°
2026-05-05 14:30 14.42731 120.91706 1669 ft 181 kts 307°
2026-05-05 14:30 14.43511 120.90684 1485 ft 181 kts 315°
2026-05-05 14:30 14.44550 120.90044 1270 ft 167 kts 350°
2026-05-05 14:30 14.45593 120.90263 1036 ft 148 kts 42°
2026-05-05 14:31 14.45995 120.91125 1036 ft 127 kts 78°
2026-05-05 14:31 14.46188 120.92006 1309 ft 127 kts 78°
2026-05-05 14:31 14.46387 120.92889 1309 ft 124 kts 75°
2026-05-05 14:31 14.46650 120.93729 1258 ft 123 kts 70°
2026-05-05 14:32 14.46959 120.94545 1123 ft 122 kts 69°
2026-05-05 14:32 14.47275 120.95357 1019 ft 122 kts 68°
2026-05-05 14:32 14.47649 120.96158 876 ft 122 kts 63°
2026-05-05 14:32 14.48061 120.96921 751 ft 122 kts 61°
2026-05-05 14:33 14.48492 120.97669 597 ft 121 kts 62°
2026-05-05 14:33 14.48902 120.98429 466 ft 122 kts 63°
2026-05-05 14:33 14.49326 120.99192 325 ft 121 kts 63°
2026-05-05 14:33 14.49747 120.99947 176 ft 121 kts 62°
2026-05-05 14:34 14.50159 121.00690 84 ft 114 kts 62°
2026-05-05 14:34 14.50483 121.01274 82 ft 70 kts 60°
2026-05-05 14:34 14.50655 121.01582 82 ft 17 kts 58°
2026-05-05 14:34 14.50726 121.01678 82 ft 12 kts 46°
2026-05-05 14:35 14.50789 121.01736 82 ft 12 kts 37°
2026-05-05 14:35 14.50857 121.01784 82 ft 6 kts 14°
2026-05-05 14:35 14.50907 121.01768 82 ft 8 kts 320°
2026-05-05 14:35 14.50958 121.01719 82 ft 11 kts 316°
2026-05-05 14:36 14.51018 121.01659 82 ft 12 kts 314°
2026-05-05 14:36 14.51084 121.01588 82 ft 14 kts 314°
2026-05-05 14:36 14.51158 121.01511 82 ft 13 kts 315°
2026-05-05 14:36 14.51185 121.01484 82 ft 0 kts 314°
2026-05-05 14:37 14.51188 121.01480 82 ft 3 kts 315°
2026-05-05 14:37 14.51230 121.01439 82 ft 9 kts 325°
2026-05-05 14:37 14.51293 121.01447 82 ft 9 kts 38°
2026-05-05 14:37 14.51340 121.01502 82 ft 10 kts 50°
2026-05-05 14:38 14.51400 121.01534 82 ft 10 kts 343°
2026-05-05 14:38 14.51455 121.01485 82 ft 12 kts 314°
2026-05-05 14:38 14.51535 121.01404 82 ft 17 kts 314°
2026-05-05 14:38 14.51620 121.01315 82 ft 17 kts 315°
2026-05-05 14:39 14.51703 121.01229 82 ft 16 kts 315°
2026-05-05 14:39 14.51783 121.01147 82 ft 16 kts 315°
2026-05-05 14:39 14.51839 121.01088 82 ft 5 kts 315°
2026-05-05 14:39 14.51871 121.01057 82 ft 7 kts 320°
2026-05-05 14:40 14.51920 121.01063 82 ft 8 kts 56°
2026-05-05 14:40 14.51938 121.01122 82 ft 8 kts 59°
2026-05-05 14:40 14.51970 121.01157 82 ft 3 kts 45°
2026-05-05 14:40 14.51986 121.01173 82 ft 2 kts 45°
2026-05-05 14:41 14.51991 121.01179 82 ft 0 kts 45°
2026-05-05 14:41 14.51992 121.01180 82 ft 0 kts 45°
2026-05-05 15:07 14.51992 121.01179 82 ft 0 kts 45°
2026-05-05 15:08 14.51988 121.01175 82 ft 2 kts 43°
2026-05-05 15:08 14.51977 121.01165 82 ft 2 kts 45°
2026-05-05 15:08 14.51967 121.01154 82 ft 2 kts 44°
2026-05-05 15:08 14.51956 121.01144 82 ft 2 kts 44°
2026-05-05 15:09 14.51945 121.01133 82 ft 2 kts 44°
2026-05-05 15:09 14.51934 121.01122 82 ft 2 kts 50°
2026-05-05 15:09 14.51930 121.01107 82 ft 2 kts 96°
2026-05-05 15:09 14.51934 121.01094 82 ft 0 kts 130°
2026-05-05 15:10 14.51935 121.01093 82 ft 1 kts 131°
2026-05-05 15:10 14.51911 121.01119 82 ft 5 kts 135°
2026-05-05 15:10 14.51896 121.01135 82 ft 0 kts 135°
2026-05-05 15:12 14.51889 121.01141 82 ft 6 kts 135°
2026-05-05 15:12 14.51837 121.01196 82 ft 14 kts 134°
2026-05-05 15:12 14.51765 121.01272 82 ft 15 kts 135°
2026-05-05 15:13 14.51688 121.01350 82 ft 15 kts 134°
2026-05-05 15:13 14.51609 121.01431 82 ft 16 kts 135°
2026-05-05 15:13 14.51528 121.01514 82 ft 16 kts 135°
2026-05-05 15:13 14.51445 121.01601 82 ft 17 kts 134°
2026-05-05 15:14 14.51360 121.01689 82 ft 17 kts 135°
2026-05-05 15:14 14.51272 121.01780 82 ft 18 kts 134°
2026-05-05 15:14 14.51183 121.01872 82 ft 18 kts 135°
2026-05-05 15:14 14.51102 121.01955 82 ft 13 kts 134°
2026-05-05 15:15 14.51061 121.01988 82 ft 6 kts 184°
2026-05-05 15:15 14.51021 121.01951 82 ft 8 kts 237°
2026-05-05 15:15 14.50986 121.01889 82 ft 10 kts 240°
2026-05-05 15:15 14.50939 121.01807 82 ft 16 kts 240°
2026-05-05 15:16 14.50871 121.01683 82 ft 22 kts 240°
2026-05-05 15:16 14.50794 121.01544 82 ft 22 kts 239°
2026-05-05 15:16 14.50715 121.01404 82 ft 22 kts 240°
2026-05-05 15:16 14.50636 121.01263 82 ft 22 kts 239°
2026-05-05 15:17 14.50559 121.01120 82 ft 22 kts 240°
2026-05-05 15:17 14.50480 121.00978 82 ft 22 kts 240°
2026-05-05 15:17 14.50400 121.00835 82 ft 22 kts 240°
2026-05-05 15:17 14.50321 121.00692 82 ft 23 kts 240°
2026-05-05 15:18 14.50241 121.00549 82 ft 23 kts 241°
2026-05-05 15:18 14.50161 121.00405 82 ft 23 kts 239°
2026-05-05 15:18 14.50082 121.00261 82 ft 23 kts 240°
2026-05-05 15:18 14.50002 121.00118 82 ft 23 kts 240°
2026-05-05 15:19 14.49937 121.00002 82 ft 10 kts 239°
2026-05-05 15:19 14.49908 120.99968 82 ft 3 kts 206°
2026-05-05 15:19 14.49895 120.99965 82 ft 0 kts 185°
2026-05-05 15:21 14.49876 120.99968 82 ft 6 kts 165°
2026-05-05 15:22 14.49822 120.99995 82 ft 7 kts 148°
2026-05-05 15:22 14.49796 121.00013 82 ft 2 kts 124°
2026-05-05 15:22 14.49801 121.00040 82 ft 0 kts 64°
2026-05-05 15:22 14.49802 121.00041 82 ft 0 kts 63°
2026-05-05 15:23 14.49802 121.00042 82 ft 1 kts 63°
2026-05-05 15:23 14.49940 121.00293 82 ft 88 kts 60°
2026-05-05 15:23 14.50386 121.01080 232 ft 149 kts 62°
2026-05-05 15:24 14.50911 121.02008 902 ft 162 kts 62°
2026-05-05 15:24 14.51502 121.03059 1315 ft 171 kts 61°
2026-05-05 15:24 14.52018 121.04153 1476 ft 169 kts 77°
2026-05-05 15:24 14.51844 121.05332 1472 ft 170 kts 120°
2026-05-05 15:25 14.50899 121.06056 1483 ft 176 kts 163°
2026-05-05 15:25 14.49681 121.05922 1485 ft 181 kts 205°
2026-05-05 15:25 14.48786 121.05013 1499 ft 186 kts 235°
2026-05-05 15:25 14.48092 121.03861 1499 ft 187 kts 239°
2026-05-05 15:26 14.47443 121.02697 1496 ft 186 kts 240°
2026-05-05 15:26 14.46801 121.01531 1496 ft 186 kts 239°
2026-05-05 15:26 14.46163 121.00375 1497 ft 186 kts 239°
2026-05-05 15:26 14.45519 120.99205 1496 ft 186 kts 240°
2026-05-05 15:27 14.44885 120.98055 1521 ft 181 kts 240°
2026-05-05 15:27 14.44463 120.96896 1478 ft 164 kts 270°
2026-05-05 15:27 14.44826 120.95885 1401 ft 142 kts 318°
2026-05-05 15:27 14.45633 120.95343 1200 ft 137 kts 335°
2026-05-05 15:28 14.46526 120.95151 1016 ft 130 kts 22°
2026-05-05 15:28 14.47203 120.95710 953 ft 124 kts 51°
2026-05-05 15:28 14.47720 120.96403 851 ft 120 kts 56°
2026-05-05 15:28 14.48178 120.97133 738 ft 120 kts 61°
2026-05-05 15:29 14.48601 120.97872 599 ft 121 kts 63°
2026-05-05 15:29 14.49012 120.98626 455 ft 120 kts 61°
2026-05-05 15:29 14.49429 120.99373 296 ft 120 kts 63°
2026-05-05 15:29 14.49851 121.00132 132 ft 121 kts 63°
2026-05-05 15:30 14.50248 121.00854 83 ft 108 kts 59°
2026-05-05 15:30 14.50676 121.01626 128 ft 151 kts 60°
2026-05-05 15:30 14.51218 121.02576 990 ft 156 kts 60°
2026-05-05 15:30 14.51808 121.03606 1345 ft 171 kts 60°
2026-05-05 15:31 14.52327 121.04695 1479 ft 169 kts 78°
2026-05-05 15:31 14.52139 121.05870 1477 ft 170 kts 121°
2026-05-05 15:31 14.51193 121.06578 1488 ft 176 kts 163°
2026-05-05 15:31 14.49975 121.06432 1490 ft 182 kts 207°
2026-05-05 15:32 14.49073 121.05496 1513 ft 186 kts 235°
2026-05-05 15:32 14.48399 121.04353 1508 ft 186 kts 239°
2026-05-05 15:32 14.47768 121.03189 1503 ft 186 kts 239°
2026-05-05 15:32 14.47129 121.02023 1502 ft 186 kts 240°
2026-05-05 15:33 14.46485 121.00850 1503 ft 186 kts 240°
2026-05-05 15:33 14.45847 120.99689 1506 ft 186 kts 239°
2026-05-05 15:33 14.45207 120.98528 1524 ft 183 kts 240°
2026-05-05 15:33 14.44731 120.97383 1518 ft 165 kts 265°
2026-05-05 15:34 14.45011 120.96328 1446 ft 144 kts 314°
2026-05-05 15:34 14.45796 120.95773 1303 ft 138 kts 334°
2026-05-05 15:34 14.46665 120.95393 1165 ft 133 kts 360°
2026-05-05 15:34 14.47427 120.95775 938 ft 125 kts 62°
2026-05-05 15:35 14.47858 120.96567 816 ft 124 kts 62°
2026-05-05 15:35 14.48278 120.97323 663 ft 120 kts 61°
2026-05-05 15:35 14.48706 120.98068 519 ft 120 kts 62°
2026-05-05 15:35 14.49114 120.98820 382 ft 119 kts 60°
2026-05-05 15:36 14.49540 120.99577 242 ft 122 kts 63°
2026-05-05 15:36 14.49955 121.00319 110 ft 119 kts 62°
2026-05-05 15:36 14.50347 121.01031 83 ft 104 kts 61°
2026-05-05 15:36 14.50718 121.01688 83 ft 132 kts 62°
2026-05-05 15:37 14.51222 121.02614 737 ft 156 kts 63°
2026-05-05 15:37 14.51755 121.03617 1180 ft 162 kts 61°
2026-05-05 15:37 14.52312 121.04647 1439 ft 168 kts 62°
2026-05-05 15:37 14.52630 121.05795 1452 ft 168 kts 94°
2026-05-05 15:38 14.52103 121.06857 1463 ft 171 kts 138°
2026-05-05 15:38 14.50968 121.07249 1475 ft 178 kts 181°
2026-05-05 15:38 14.49838 121.06735 1474 ft 184 kts 223°
2026-05-05 15:38 14.49077 121.05673 1495 ft 186 kts 237°
2026-05-05 15:39 14.48411 121.04513 1491 ft 186 kts 239°
2026-05-05 15:39 14.47770 121.03355 1489 ft 185 kts 240°
2026-05-05 15:39 14.47233 121.02146 1478 ft 185 kts 260°
2026-05-05 15:39 14.47294 121.00829 1490 ft 185 kts 283°
2026-05-05 15:40 14.47793 120.99622 1483 ft 182 kts 308°
2026-05-05 15:40 14.48631 120.98647 1490 ft 182 kts 316°
2026-05-05 15:40 14.49523 120.97729 1489 ft 180 kts 318°
2026-05-05 15:40 14.50414 120.96829 1486 ft 181 kts 318°
2026-05-05 15:41 14.51314 120.95921 1492 ft 180 kts 318°
2026-05-05 15:41 14.52201 120.95026 1504 ft 170 kts 318°
2026-05-05 15:41 14.53078 120.94367 1502 ft 145 kts 349°
2026-05-05 15:41 14.53980 120.94531 1397 ft 126 kts 40°
2026-05-05 15:42 14.54605 120.95161 1274 ft 127 kts 46°
2026-05-05 15:42 14.55228 120.95826 1123 ft 127 kts 52°
2026-05-05 15:42 14.55429 120.96643 948 ft 120 kts 104°
2026-05-05 15:42 14.55025 120.97398 831 ft 119 kts 124°
2026-05-05 15:43 14.54512 120.98063 680 ft 119 kts 128°
2026-05-05 15:43 14.53973 120.98718 554 ft 119 kts 130°
2026-05-05 15:43 14.53393 120.99332 403 ft 119 kts 133°
2026-05-05 15:43 14.52815 120.99937 261 ft 119 kts 133°
2026-05-05 15:44 14.52222 121.00549 109 ft 120 kts 132°
2026-05-05 15:44 14.51694 121.01099 82 ft 87 kts 135°
2026-05-05 15:44 14.51403 121.01395 82 ft 16 kts 134°
2026-05-05 15:44 14.51365 121.01436 82 ft 0 kts 133°
2026-05-05 15:45 14.51357 121.01445 82 ft 2 kts 126°
2026-05-05 15:45 14.51343 121.01489 82 ft 11 kts 88°
2026-05-05 15:45 14.51391 121.01557 82 ft 12 kts 45°
2026-05-05 15:45 14.51449 121.01590 82 ft 9 kts 351°
2026-05-05 15:46 14.51501 121.01544 82 ft 10 kts 311°
2026-05-05 15:46 14.51558 121.01483 82 ft 12 kts 315°
2026-05-05 15:46 14.51631 121.01408 82 ft 18 kts 315°
2026-05-05 15:46 14.51733 121.01302 82 ft 21 kts 314°
2026-05-05 15:47 14.51837 121.01196 82 ft 17 kts 315°
2026-05-05 15:47 14.51887 121.01144 82 ft 9 kts 315°
2026-05-05 15:47 14.51936 121.01127 82 ft 6 kts 27°
2026-05-05 15:47 14.51967 121.01154 82 ft 4 kts 45°
2026-05-05 15:48 14.51987 121.01174 82 ft 1 kts 45°
2026-05-05 15:48 14.51992 121.01180 82 ft 0 kts 45°